This is the latest recevied weather packets stored in our database for station/object DL6MM-4. If no packets are shown the sender has not sent any weather packets the latest 10 day(s).
| Time | Temp. | Humidity | Pressure | Rain* | Wind** | Luminosity | Snow |
|---|---|---|---|---|---|---|---|
| 1777775355 | 10.56° C | 85% | 1011.7 hPa | 0 mm | - | - | - |
| 1777774755 | 10.56° C | 85% | 1011.9 hPa | 0 mm | - | - | - |
| 1777774155 | 10.56° C | 86% | 1011.9 hPa | 0 mm | - | - | - |
| 1777773555 | 10.56° C | 85% | 1012 hPa | 0 mm | - | - | - |
| 1777772955 | 10.56° C | 85% | 1012 hPa | 0 mm | - | - | - |
| 1777772355 | 10.56° C | 85% | 1012 hPa | 0 mm | - | - | - |
| 1777771755 | 10.56° C | 85% | 1012.1 hPa | 0 mm | - | - | - |
| 1777771155 | 10.56° C | 85% | 1012.1 hPa | 0 mm | - | - | - |
| 1777770555 | 11.11° C | 85% | 1012.2 hPa | 0 mm | - | - | - |
| 1777769955 | 10.56° C | 84% | 1012.2 hPa | 0 mm | - | - | - |
| 1777769355 | 11.11° C | 84% | 1012.4 hPa | 0 mm | - | - | - |
| 1777768755 | 11.11° C | 83% | 1012.5 hPa | 0 mm | - | - | - |
| 1777768155 | 11.67° C | 82% | 1012.5 hPa | 0 mm | - | - | - |
| 1777767555 | 11.67° C | 81% | 1012.7 hPa | 0 mm | - | - | - |
| 1777766955 | 12.22° C | 80% | 1012.7 hPa | 0 mm | - | - | - |
| 1777766355 | 12.78° C | 80% | 1012.9 hPa | 0 mm | - | - | - |
| 1777765755 | 12.78° C | 81% | 1013.1 hPa | 0 mm | - | - | - |
| 1777765155 | 12.22° C | 81% | 1013.2 hPa | 0 mm | - | - | - |
| 1777764555 | 12.22° C | 80% | 1013.2 hPa | 0 mm | - | - | - |
| 1777763955 | 12.22° C | 80% | 1013.7 hPa | 0 mm | - | - | - |
| 1777763355 | 11.67° C | 81% | 1013.7 hPa | 0 mm | - | - | - |
| 1777762755 | 11.67° C | 81% | 1013.7 hPa | 0 mm | - | - | - |
| 1777762155 | 11.67° C | 81% | 1013.7 hPa | 0 mm | - | - | - |
| 1777761555 | 11.67° C | 79% | 1013 hPa | 0 mm | - | - | - |
| 1777760955 | 11.67° C | 80% | 1013 hPa | 0 mm | - | - | - |
* Rain latest hour (hover to see other rain measurements)
** Current wind speed in m/s (hover to see current wind gust speed)